Weather History for Paganella, Italy

Change the Weather History Date:

Monday, October 8, 2012

  Actual Average Record
Temperature  
Mean Temperature 42 °F -  
Max Temperature 45 °F 41 °F 50 °F (1997)
Min Temperature 38 °F 33 °F 24 °F (2000)
Degree Days  
Heating Degree Days 24    
Moisture  
Dew Point 32 °F    
Average Humidity 70    
Maximum Humidity 100    
Minimum Humidity 37    
Precipitation  
Precipitation 0.00 in 0.09 in - ()
Sea Level Pressure  
Sea Level Pressure 30.11 in    
Wind  
Wind Speed 7 mph ()    
Max Wind Speed 13 mph    
Max Gust Speed -    
Visibility 0.4 miles    
Events Fog    
Averages and records for this station are not official NWS values.
T = Trace of Precipitation, MM = Missing Value Source: Averaged Metar Reports

Daily Weather History Graph

Daily Weather History Graph

Search for Another Location

Airport:

Trip Planner

Search our weather history database for the weather conditions in past years. The results will help you decide how hot, cold, wet, or windy it might be!

Date:

Astronomy

Oct. 08, 2012 Rise Set
Actual Time 7:23 AM CEST 6:42 PM CEST
Civil Twilight 6:53 AM CEST 7:11 PM CEST
Nautical Twilight 6:19 AM CEST 7:46 PM CEST
Astronomical Twilight 5:44 AM CEST 8:21 PM CEST
Moon No Moon Rise 2:41 PM CEST (10/8)
Length of Visible Light 12h 18m
Length of Day
11h 18m
Waning Gibbous, 49% of the Moon is Illuminated
Oct 8
Waning Gibbous
Oct 15
New
Oct 22
First Quarter
Oct 29
Full
Nov 7
Last Quarter

Hourly Weather History & Observations

Time (CEST) Temp. Windchill Dew Point Humidity Pressure Visibility Wind Dir Wind Speed Gust Speed Precip Events Conditions
12:55 AM 42.8 °F 36.6 °F 33.8 °F 70% 30.12 in - North 11.5 mph - N/A   Clear
3:55 AM 41.0 °F 33.9 °F 24.8 °F 53% 30.12 in - North 12.7 mph - N/A   Clear
4:55 AM 39.2 °F 32.5 °F 23.0 °F 52% 30.12 in - North 10.4 mph - N/A   Clear
5:00 AM 40 °F - 23 °F 37%  in 31 mi North 10.4 mph - -   Scattered Clouds
5:55 AM 39.2 °F - 23.0 °F 52% 30.12 in - North 2.3 mph - N/A   Clear
6:55 AM 39.2 °F - 23.0 °F 52% 30.12 in - Variable 1.2 mph - N/A   Clear
7:55 AM 39.2 °F 35.9 °F 24.8 °F 56% 30.12 in - South 4.6 mph - N/A   Clear
8:00 AM 39 °F - 25 °F 45%  in 31 mi South 4.6 mph - -   Clear
8:55 AM 39.2 °F 33.6 °F 24.8 °F 56% 30.15 in - ENE 8.1 mph - N/A   Clear
9:55 AM 41.0 °F 36.4 °F 19.4 °F 42% 30.15 in - ENE 6.9 mph - N/A   Clear
10:55 AM 41.0 °F 38.0 °F 24.8 °F 53% 30.15 in - SSW 4.6 mph - N/A   Clear
11:00 AM 41 °F - 25 °F 40%  in 31 mi SSW 4.6 mph - -   Scattered Clouds
11:55 AM 42.8 °F 38.6 °F 28.4 °F 57% 30.15 in - South 6.9 mph - N/A   Clear
12:55 PM 42.8 °F 38.0 °F 30.2 °F 61% 30.15 in - SW 8.1 mph - N/A   Clear
1:55 PM 44.6 °F 39.7 °F 33.8 °F 66% 30.12 in - SSW 9.2 mph - N/A   Clear
2:00 PM 44 °F - 33 °F 55%  in 31 mi SSW 9.2 mph - -   Mostly Cloudy
2:55 PM 44.6 °F 38.4 °F 37.4 °F 76% 30.12 in - SW 12.7 mph - N/A   Clear
3:55 PM 42.8 °F 38.0 °F 41.0 °F 93% 30.09 in 0.2 mi WSW 8.1 mph - N/A Fog Fog
4:55 PM 44.6 °F 43.1 °F 41.0 °F 87% 30.09 in 0.6 mi Variable 3.5 mph - N/A Fog Fog
5:00 PM 44 °F - 42 °F 88%  in 1 mi 3.5 mph - - Fog Heavy Fog
5:55 PM 44.6 °F - 41.0 °F 87% 30.09 in 0.6 mi Variable 2.3 mph - N/A Fog Fog
6:55 PM 42.8 °F 41.1 °F 39.2 °F 87% 30.06 in 0.6 mi SW 3.5 mph - N/A Fog Fog
7:55 PM 41.0 °F 38.0 °F 39.2 °F 93% 30.09 in 0.6 mi WSW 4.6 mph - N/A Fog Fog
8:00 PM 42 °F - 39 °F 87%  in 1 mi WSW 4.6 mph - - Fog Heavy Fog
8:55 PM 41.0 °F 37.1 °F 39.2 °F 93% 30.06 in 0.1 mi SSW 5.8 mph - N/A Fog Fog
9:55 PM 41.0 °F 39.0 °F 41.0 °F 100% 30.06 in 0.0 mi SSW 3.5 mph - N/A Fog Fog
10:55 PM 41.0 °F 38.0 °F 41.0 °F 100% 30.06 in 0.0 mi SW 4.6 mph - N/A Fog Fog
11:00 PM 40 °F - 40 °F 100%  in 0 mi SW 4.6 mph - - Fog Heavy Fog
11:55 PM 41.0 °F 35.2 °F 41.0 °F 100% 30.06 in 0.0 mi WSW 9.2 mph - N/A Fog Fog